Time,TemperatureF,DewpointF,PressureIn,WindDirection,WindDirectionDegrees,WindSpeedMPH,WindSpeedGustMPH,Humidity,HourlyPrecipIn,Conditions,Clouds,dailyrainin,SoftwareType,DateUTC
2013-03-11 00:00:00,31.3,27.6,28.61,WSW,241,0.0,0.0,86,0.00,,,0.00,VWS V14.00,2013-03-11 05:00:00,
2013-03-11 00:05:00,31.1,27.1,28.61,SW,235,0.0,0.0,85,0.00,,,0.00,VWS V14.00,2013-03-11 05:05:00,
2013-03-11 00:10:00,31.1,27.1,28.61,WSW,257,0.0,0.0,85,0.00,,,0.00,VWS V14.00,2013-03-11 05:10:00,
2013-03-11 00:15:00,30.9,27.0,28.61,WSW,257,0.0,0.0,85,0.00,,,0.00,VWS V14.00,2013-03-11 05:15:00,
2013-03-11 00:20:00,30.7,26.5,28.61,SW,236,0.0,0.0,84,0.00,,,0.00,VWS V14.00,2013-03-11 05:20:00,
2013-03-11 00:25:00,30.9,26.7,28.61,WSW,238,0.0,0.0,84,0.00,,,0.00,VWS V14.00,2013-03-11 05:25:00,
2013-03-11 00:30:00,30.6,26.3,28.61,West,279,0.0,0.0,84,0.00,,,0.00,VWS V14.00,2013-03-11 05:30:00,
2013-03-11 00:35:00,30.6,26.0,28.61,West,259,0.0,0.0,83,0.00,,,0.00,VWS V14.00,2013-03-11 05:35:00,
2013-03-11 00:40:00,30.4,26.1,28.61,WSW,258,0.0,0.0,84,0.00,,,0.00,VWS V14.00,2013-03-11 05:40:00,
2013-03-11 00:45:00,30.2,26.0,28.61,SW,233,0.0,0.0,84,0.00,,,0.00,VWS V14.00,2013-03-11 05:45:00,
2013-03-11 00:50:00,29.8,25.6,28.61,WSW,252,0.0,0.0,84,0.00,,,0.00,VWS V14.00,2013-03-11 05:50:00,
2013-03-11 00:55:00,29.5,25.2,28.61,WSW,256,0.0,0.0,84,0.00,,,0.00,VWS V14.00,2013-03-11 05:55:00,
2013-03-11 01:00:00,29.5,25.2,28.61,SW,214,0.0,0.0,84,0.00,,,0.00,VWS V14.00,2013-03-11 06:00:00,
2013-03-11 01:05:00,29.3,25.1,28.61,WSW,238,0.0,0.0,84,0.00,,,0.00,VWS V14.00,2013-03-11 06:05:00,
2013-03-11 01:10:00,29.3,25.1,28.61,WSW,244,0.0,0.0,84,0.00,,,0.00,VWS V14.00,2013-03-11 06:10:00,
2013-03-11 01:15:00,29.1,24.9,28.61,SW,219,0.0,0.0,84,0.00,,,0.00,VWS V14.00,2013-03-11 06:15:00,
2013-03-11 01:20:00,29.1,24.9,28.61,SW,230,0.0,0.0,84,0.00,,,0.00,VWS V14.00,2013-03-11 06:20:00,
2013-03-11 01:25:00,29.1,24.9,28.61,SW,230,0.0,0.0,84,0.00,,,0.00,VWS V14.00,2013-03-11 06:25:00,
2013-03-11 01:30:00,28.9,24.7,28.61,West,259,0.0,0.0,84,0.00,,,0.00,VWS V14.00,2013-03-11 06:30:00,
2013-03-11 01:35:00,28.9,24.7,28.61,SW,231,0.0,0.0,84,0.00,,,0.00,VWS V14.00,2013-03-11 06:35:00,
2013-03-11 01:40:00,28.9,24.7,28.61,WSW,257,0.0,0.0,84,0.00,,,0.00,VWS V14.00,2013-03-11 06:40:00,
2013-03-11 01:45:00,28.9,25.0,28.61,SW,233,0.0,0.0,85,0.00,,,0.00,VWS V14.00,2013-03-11 06:45:00,
2013-03-11 01:50:00,28.9,24.7,28.61,SW,231,0.0,0.0,84,0.00,,,0.00,VWS V14.00,2013-03-11 06:50:00,
2013-03-11 01:55:00,28.9,24.7,28.61,WSW,241,0.0,0.0,84,0.00,,,0.00,VWS V14.00,2013-03-11 06:55:00,
2013-03-11 02:00:00,28.9,25.0,28.61,West,266,0.0,0.0,85,0.00,,,0.00,VWS V14.00,2013-03-11 07:00:00,
2013-03-11 02:05:00,28.8,24.8,28.61,West,261,0.0,0.0,85,0.00,,,0.00,VWS V14.00,2013-03-11 07:05:00,
2013-03-11 02:10:00,28.8,24.8,28.61,West,265,0.0,0.0,85,0.00,,,0.00,VWS V14.00,2013-03-11 07:10:00,
2013-03-11 02:15:00,28.8,24.5,28.61,SW,235,0.0,0.0,84,0.00,,,0.00,VWS V14.00,2013-03-11 07:15:00,
2013-03-11 02:20:00,28.6,24.4,28.61,SW,230,0.0,0.0,84,0.00,,,0.00,VWS V14.00,2013-03-11 07:20:00,
2013-03-11 02:25:00,28.6,24.4,28.61,SW,226,0.0,0.0,84,0.00,,,0.00,VWS V14.00,2013-03-11 07:25:00,
2013-03-11 02:30:00,28.6,24.1,28.61,WSW,240,0.0,0.0,83,0.00,,,0.00,VWS V14.00,2013-03-11 07:30:00,
2013-03-11 02:35:00,28.6,24.1,28.61,WNW,288,0.0,0.0,83,0.00,,,0.00,VWS V14.00,2013-03-11 07:35:00,
2013-03-11 02:40:00,28.6,24.1,28.61,West,261,0.0,0.0,83,0.00,,,0.00,VWS V14.00,2013-03-11 07:40:00,
2013-03-11 02:45:00,28.6,23.8,28.61,West,260,0.0,0.0,82,0.00,,,0.00,VWS V14.00,2013-03-11 07:45:00,
2013-03-11 02:50:00,28.4,23.6,28.61,WSW,237,0.0,0.0,82,0.00,,,0.00,VWS V14.00,2013-03-11 07:50:00,
2013-03-11 02:55:00,28.2,23.1,28.61,WSW,241,0.0,0.0,81,0.00,,,0.00,VWS V14.00,2013-03-11 07:55:00,
2013-03-11 03:00:00,28.2,23.1,28.61,WSW,257,0.0,0.0,81,0.00,,,0.00,VWS V14.00,2013-03-11 08:00:00,
2013-03-11 03:05:00,28.2,22.9,28.61,WSW,239,0.0,0.0,80,0.00,,,0.00,VWS V14.00,2013-03-11 08:05:00,
2013-03-11 03:10:00,28.0,22.7,28.61,SW,230,0.0,0.0,80,0.00,,,0.00,VWS V14.00,2013-03-11 08:10:00,
2013-03-11 03:15:00,28.0,22.7,28.61,NW,307,0.0,0.0,80,0.00,,,0.00,VWS V14.00,2013-03-11 08:15:00,
2013-03-11 03:20:00,28.0,22.7,28.61,WSW,252,0.0,0.0,80,0.00,,,0.00,VWS V14.00,2013-03-11 08:20:00,
2013-03-11 03:25:00,28.0,22.7,28.61,SW,215,0.0,0.0,80,0.00,,,0.00,VWS V14.00,2013-03-11 08:25:00,
2013-03-11 03:30:00,27.9,22.5,28.61,West,268,0.0,0.0,80,0.00,,,0.00,VWS V14.00,2013-03-11 08:30:00,
2013-03-11 03:35:00,27.9,22.5,28.61,West,264,0.0,0.0,80,0.00,,,0.00,VWS V14.00,2013-03-11 08:35:00,
2013-03-11 03:40:00,27.9,22.5,28.61,SW,229,0.0,0.0,80,0.00,,,0.00,VWS V14.00,2013-03-11 08:40:00,
2013-03-11 03:45:00,27.9,22.5,28.61,WSW,253,0.0,0.0,80,0.00,,,0.00,VWS V14.00,2013-03-11 08:45:00,
2013-03-11 03:50:00,27.9,22.5,28.61,SW,225,0.0,0.0,80,0.00,,,0.00,VWS V14.00,2013-03-11 08:50:00,
2013-03-11 03:55:00,27.9,22.5,28.61,SW,232,0.0,0.0,80,0.00,,,0.00,VWS V14.00,2013-03-11 08:55:00,
2013-03-11 04:00:00,27.7,22.6,28.61,WSW,252,0.0,0.0,81,0.00,,,0.00,VWS V14.00,2013-03-11 09:00:00,
2013-03-11 04:05:00,27.5,22.5,28.61,WNW,292,0.0,0.0,81,0.00,,,0.00,VWS V14.00,2013-03-11 09:05:00,
2013-03-11 04:10:00,27.5,22.5,28.61,WSW,246,0.0,0.0,81,0.00,,,0.00,VWS V14.00,2013-03-11 09:10:00,
2013-03-11 04:15:00,27.5,22.5,28.61,SW,227,0.0,0.0,81,0.00,,,0.00,VWS V14.00,2013-03-11 09:15:00,
2013-03-11 04:20:00,27.3,22.3,28.61,SW,234,0.0,0.0,81,0.00,,,0.00,VWS V14.00,2013-03-11 09:20:00,
2013-03-11 04:25:00,27.3,22.0,28.61,West,260,0.0,0.0,80,0.00,,,0.00,VWS V14.00,2013-03-11 09:25:00,
2013-03-11 04:30:00,27.1,21.8,28.61,SW,232,0.0,0.0,80,0.00,,,0.00,VWS V14.00,2013-03-11 09:30:00,
2013-03-11 04:35:00,27.1,21.8,28.61,SW,226,0.0,0.0,80,0.00,,,0.00,VWS V14.00,2013-03-11 09:35:00,
2013-03-11 04:40:00,27.0,21.6,28.61,SW,229,0.0,0.0,80,0.00,,,0.00,VWS V14.00,2013-03-11 09:40:00,
2013-03-11 04:45:00,26.8,21.5,28.61,SW,227,0.0,0.0,80,0.00,,,0.00,VWS V14.00,2013-03-11 09:45:00,
2013-03-11 04:50:00,26.4,21.1,28.61,SW,230,0.0,0.0,80,0.00,,,0.00,VWS V14.00,2013-03-11 09:50:00,
2013-03-11 04:55:00,26.4,21.1,28.61,South,191,0.0,0.0,80,0.00,,,0.00,VWS V14.00,2013-03-11 09:55:00,
2013-03-11 05:00:00,26.2,20.6,28.61,WSW,241,0.0,0.0,79,0.00,,,0.00,VWS V14.00,2013-03-11 10:00:00,
2013-03-11 05:05:00,26.2,20.6,28.61,SW,235,0.0,0.0,79,0.00,,,0.00,VWS V14.00,2013-03-11 10:05:00,
2013-03-11 05:10:00,26.2,20.6,28.61,SW,231,0.0,0.0,79,0.00,,,0.00,VWS V14.00,2013-03-11 10:10:00,
2013-03-11 05:15:00,26.2,20.6,28.61,SW,231,0.0,0.0,79,0.00,,,0.00,VWS V14.00,2013-03-11 10:15:00,
2013-03-11 05:20:00,26.2,20.6,28.61,WSW,257,0.0,0.0,79,0.00,,,0.00,VWS V14.00,2013-03-11 10:20:00,
2013-03-11 05:25:00,26.2,20.6,28.61,WSW,238,0.0,0.0,79,0.00,,,0.00,VWS V14.00,2013-03-11 10:25:00,
2013-03-11 05:30:00,26.2,20.6,28.61,SW,235,0.0,0.0,79,0.00,,,0.00,VWS V14.00,2013-03-11 10:30:00,
2013-03-11 05:35:00,26.2,20.6,28.61,SW,235,0.0,0.0,79,0.00,,,0.00,VWS V14.00,2013-03-11 10:35:00,
2013-03-11 05:40:00,26.1,20.5,28.61,WSW,252,0.0,0.0,79,0.00,,,0.00,VWS V14.00,2013-03-11 10:40:00,
2013-03-11 05:45:00,26.1,20.5,28.61,SW,230,0.0,0.0,79,0.00,,,0.00,VWS V14.00,2013-03-11 10:45:00,
2013-03-11 05:50:00,25.9,20.3,28.61,WSW,242,0.0,0.0,79,0.00,,,0.00,VWS V14.00,2013-03-11 10:50:00,
2013-03-11 05:55:00,25.7,20.1,28.61,WSW,241,0.0,0.0,79,0.00,,,0.00,VWS V14.00,2013-03-11 10:55:00,
2013-03-11 06:00:00,25.7,19.8,28.61,SW,225,0.0,0.0,78,0.00,,,0.00,VWS V14.00,2013-03-11 11:00:00,
2013-03-11 06:05:00,25.5,19.6,28.61,WNW,289,0.0,0.0,78,0.00,,,0.00,VWS V14.00,2013-03-11 11:05:00,
2013-03-11 06:10:00,25.5,19.6,28.61,SW,234,0.0,0.0,78,0.00,,,0.00,VWS V14.00,2013-03-11 11:10:00,
2013-03-11 06:15:00,25.3,19.1,28.61,WSW,239,0.0,0.0,77,0.00,,,0.00,VWS V14.00,2013-03-11 11:15:00,
2013-03-11 06:20:00,25.3,19.1,28.61,SSW,197,0.0,0.0,77,0.00,,,0.00,VWS V14.00,2013-03-11 11:20:00,
2013-03-11 06:25:00,25.3,19.1,28.61,West,281,0.0,0.0,77,0.00,,,0.00,VWS V14.00,2013-03-11 11:25:00,
2013-03-11 06:30:00,25.3,19.1,28.61,West,259,0.0,0.0,77,0.00,,,0.00,VWS V14.00,2013-03-11 11:30:00,
2013-03-11 06:35:00,25.3,19.1,28.61,SW,231,0.0,0.0,77,0.00,,,0.00,VWS V14.00,2013-03-11 11:35:00,
2013-03-11 06:40:00,25.3,19.1,28.61,WSW,245,0.0,0.0,77,0.00,,,0.00,VWS V14.00,2013-03-11 11:40:00,
2013-03-11 06:45:00,25.2,18.7,28.61,SW,227,0.0,0.0,76,0.00,,,0.00,VWS V14.00,2013-03-11 11:45:00,
2013-03-11 06:50:00,25.2,18.7,28.61,SW,232,0.0,0.0,76,0.00,,,0.00,VWS V14.00,2013-03-11 11:50:00,
2013-03-11 06:55:00,25.2,18.7,28.64,SSW,196,0.0,0.0,76,0.00,,,0.00,VWS V14.00,2013-03-11 11:55:00,
2013-03-11 07:00:00,25.2,18.7,28.64,WSW,238,0.0,0.0,76,0.00,,,0.00,VWS V14.00,2013-03-11 12:00:00,
2013-03-11 07:05:00,25.2,18.7,28.64,SW,234,0.0,0.0,76,0.00,,,0.00,VWS V14.00,2013-03-11 12:05:00,
2013-03-11 07:10:00,25.2,18.7,28.64,WSW,253,0.0,0.0,76,0.00,,,0.00,VWS V14.00,2013-03-11 12:10:00,
2013-03-11 07:15:00,25.2,18.7,28.64,SSW,196,0.0,0.0,76,0.00,,,0.00,VWS V14.00,2013-03-11 12:15:00,
2013-03-11 07:20:00,25.2,18.7,28.64,SSW,193,0.0,0.0,76,0.00,,,0.00,VWS V14.00,2013-03-11 12:20:00,
2013-03-11 07:25:00,25.2,18.7,28.64,WNW,287,0.0,0.0,76,0.00,,,0.00,VWS V14.00,2013-03-11 12:25:00,
2013-03-11 07:30:00,25.2,18.7,28.64,SW,233,0.0,0.0,76,0.00,,,0.00,VWS V14.00,2013-03-11 12:30:00,
2013-03-11 07:35:00,25.2,18.7,28.64,SW,235,0.0,0.0,76,0.00,,,0.00,VWS V14.00,2013-03-11 12:35:00,
2013-03-11 07:40:00,25.2,18.7,28.64,SW,233,0.0,0.0,76,0.00,,,0.00,VWS V14.00,2013-03-11 12:40:00,
2013-03-11 07:45:00,25.2,18.7,28.64,SW,230,0.0,0.0,76,0.00,,,0.00,VWS V14.00,2013-03-11 12:45:00,
2013-03-11 07:50:00,25.2,18.7,28.64,SSW,203,0.0,0.0,76,0.00,,,0.00,VWS V14.00,2013-03-11 12:50:00,
2013-03-11 07:55:00,25.2,18.4,28.64,SW,232,0.0,0.0,75,0.00,,,0.00,VWS V14.00,2013-03-11 12:55:00,
2013-03-11 08:00:00,25.2,18.4,28.64,WSW,245,0.0,0.0,75,0.00,,,0.00,VWS V14.00,2013-03-11 13:00:00,
2013-03-11 08:05:00,25.2,18.4,28.64,West,265,0.0,0.0,75,0.00,,,0.00,VWS V14.00,2013-03-11 13:05:00,
2013-03-11 08:10:00,25.2,18.7,28.64,West,281,0.0,0.0,76,0.00,,,0.00,VWS V14.00,2013-03-11 13:10:00,
2013-03-11 08:15:00,25.0,18.5,28.64,WSW,246,0.0,0.0,76,0.00,,,0.00,VWS V14.00,2013-03-11 13:15:00,
2013-03-11 08:20:00,25.2,18.7,28.64,SW,219,0.0,0.0,76,0.00,,,0.00,VWS V14.00,2013-03-11 13:20:00,
2013-03-11 08:25:00,25.3,18.5,28.64,WSW,253,0.0,0.0,75,0.00,,,0.00,VWS V14.00,2013-03-11 13:25:00,
2013-03-11 08:30:00,25.3,18.5,28.64,SSW,192,0.0,0.0,75,0.00,,,0.00,VWS V14.00,2013-03-11 13:30:00,
2013-03-11 08:35:00,25.3,17.9,28.64,WSW,252,0.0,0.0,73,0.00,,,0.00,VWS V14.00,2013-03-11 13:35:00,
2013-03-11 08:40:00,25.3,17.9,28.64,SSW,208,0.0,0.0,73,0.00,,,0.00,VWS V14.00,2013-03-11 13:40:00,
2013-03-11 08:45:00,25.5,17.8,28.67,West,274,0.0,0.0,72,0.00,,,0.00,VWS V14.00,2013-03-11 13:45:00,
2013-03-11 08:50:00,25.3,17.3,28.67,WSW,238,0.0,0.0,71,0.00,,,0.00,VWS V14.00,2013-03-11 13:50:00,
2013-03-11 08:55:00,25.3,17.3,28.67,WSW,239,0.0,0.0,71,0.00,,,0.00,VWS V14.00,2013-03-11 13:55:00,
2013-03-11 09:00:00,25.7,17.6,28.67,WSW,253,0.0,0.0,71,0.00,,,0.00,VWS V14.00,2013-03-11 14:00:00,
2013-03-11 09:05:00,25.7,17.0,28.67,WSW,241,0.0,0.0,69,0.00,,,0.00,VWS V14.00,2013-03-11 14:05:00,
2013-03-11 09:10:00,26.1,17.3,28.67,West,278,0.0,0.0,69,0.00,,,0.00,VWS V14.00,2013-03-11 14:10:00,
2013-03-11 09:15:00,25.9,16.1,28.67,West,259,0.0,0.0,66,0.00,,,0.00,VWS V14.00,2013-03-11 14:15:00,
2013-03-11 09:20:00,25.9,16.1,28.67,WSW,246,0.0,0.0,66,0.00,,,0.00,VWS V14.00,2013-03-11 14:20:00,
2013-03-11 09:25:00,25.5,15.8,28.67,WSW,255,0.0,0.0,66,0.00,,,0.00,VWS V14.00,2013-03-11 14:25:00,
2013-03-11 09:30:00,25.5,16.4,28.67,SW,218,0.0,0.0,68,0.00,,,0.00,VWS V14.00,2013-03-11 14:30:00,
2013-03-11 09:35:00,25.5,16.8,28.67,WSW,257,0.0,0.0,69,0.00,,,0.00,VWS V14.00,2013-03-11 14:35:00,
2013-03-11 09:40:00,25.2,16.1,28.67,WSW,243,0.0,0.0,68,0.00,,,0.00,VWS V14.00,2013-03-11 14:40:00,
2013-03-11 09:45:00,26.1,17.0,28.64,WSW,249,0.0,0.0,68,0.00,,,0.00,VWS V14.00,2013-03-11 14:45:00,
2013-03-11 09:50:00,26.1,14.8,28.64,SSW,198,0.0,0.0,62,0.00,,,0.00,VWS V14.00,2013-03-11 14:50:00,
2013-03-11 09:55:00,26.1,14.5,28.64,SW,233,0.0,0.0,61,0.00,,,0.00,VWS V14.00,2013-03-11 14:55:00,
2013-03-11 10:00:00,25.9,13.9,28.67,WSW,246,0.0,0.0,60,0.00,,,0.00,VWS V14.00,2013-03-11 15:00:00,
2013-03-11 10:05:00,25.3,13.4,28.67,SSW,202,0.0,0.0,60,0.00,,,0.00,VWS V14.00,2013-03-11 15:05:00,
2013-03-11 10:10:00,25.5,14.0,28.67,SSW,208,0.0,0.0,61,0.00,,,0.00,VWS V14.00,2013-03-11 15:10:00,
2013-03-11 10:15:00,25.7,14.1,28.67,WSW,245,0.0,0.0,61,0.00,,,0.00,VWS V14.00,2013-03-11 15:15:00,
2013-03-11 10:20:00,26.4,14.4,28.67,WSW,246,0.0,0.0,60,0.00,,,0.00,VWS V14.00,2013-03-11 15:20:00,
2013-03-11 10:25:00,26.1,13.3,28.67,WSW,242,0.0,0.0,58,0.00,,,0.00,VWS V14.00,2013-03-11 15:25:00,
2013-03-11 10:30:00,25.9,13.1,28.67,SW,234,0.0,0.0,58,0.00,,,0.00,VWS V14.00,2013-03-11 15:30:00,
2013-03-11 10:35:00,26.1,13.3,28.67,WSW,239,0.0,0.0,58,0.00,,,0.00,VWS V14.00,2013-03-11 15:35:00,
2013-03-11 10:40:00,25.9,13.1,28.67,WSW,251,0.0,0.0,58,0.00,,,0.00,VWS V14.00,2013-03-11 15:40:00,
2013-03-11 10:45:00,26.1,12.9,28.67,WSW,246,0.0,0.0,57,0.00,,,0.00,VWS V14.00,2013-03-11 15:45:00,
2013-03-11 10:50:00,26.4,12.9,28.67,West,263,0.0,0.0,56,0.00,,,0.00,VWS V14.00,2013-03-11 15:50:00,
2013-03-11 10:55:00,26.6,12.6,28.67,South,190,0.0,0.0,55,0.00,,,0.00,VWS V14.00,2013-03-11 15:55:00,
2013-03-11 11:00:00,26.4,12.0,28.67,WSW,238,0.0,0.0,54,0.00,,OVC010,0.00,VWS V14.00,2013-03-11 16:00:00,
2013-03-11 11:05:00,26.8,12.4,28.67,WNW,288,0.0,0.0,54,0.00,,OVC010,0.00,VWS V14.00,2013-03-11 16:05:00,
2013-03-11 11:10:00,26.4,12.5,28.67,WSW,255,0.0,0.0,55,0.00,,OVC010,0.00,VWS V14.00,2013-03-11 16:10:00,
2013-03-11 11:15:00,26.2,11.9,28.67,West,263,0.0,0.0,54,0.00,,OVC010,0.00,VWS V14.00,2013-03-11 16:15:00,
2013-03-11 11:20:00,26.6,12.6,28.67,SW,222,0.0,0.0,55,0.00,,OVC010,0.00,VWS V14.00,2013-03-11 16:20:00,
2013-03-11 11:25:00,26.6,12.2,28.67,SW,217,0.0,0.0,54,0.00,,OVC010,0.00,VWS V14.00,2013-03-11 16:25:00,
2013-03-11 11:30:00,26.4,12.5,28.67,West,274,0.0,0.0,55,0.00,,OVC010,0.00,VWS V14.00,2013-03-11 16:30:00,
2013-03-11 11:35:00,26.2,12.3,28.67,SW,225,0.0,0.0,55,0.00,,OVC010,0.00,VWS V14.00,2013-03-11 16:35:00,
2013-03-11 11:40:00,26.1,12.1,28.67,SSW,209,0.0,0.0,55,0.00,,OVC010,0.00,VWS V14.00,2013-03-11 16:40:00,
2013-03-11 11:45:00,26.4,12.5,28.67,SW,214,0.0,0.0,55,0.00,,OVC010,0.00,VWS V14.00,2013-03-11 16:45:00,
2013-03-11 11:50:00,26.1,12.1,28.67,WSW,256,0.0,0.0,55,0.00,,OVC010,0.00,VWS V14.00,2013-03-11 16:50:00,
2013-03-11 11:55:00,26.4,12.5,28.67,SSW,212,0.0,0.0,55,0.00,,OVC010,0.00,VWS V14.00,2013-03-11 16:55:00,
2013-03-11 12:00:00,26.1,12.1,28.67,SW,227,0.0,0.0,55,0.00,,,0.00,VWS V14.00,2013-03-11 17:00:00,
2013-03-11 12:05:00,27.3,13.3,28.67,WNW,302,0.0,0.0,55,0.00,,,0.00,VWS V14.00,2013-03-11 17:05:00,
2013-03-11 12:10:00,27.0,12.6,28.67,SW,215,0.0,0.0,54,0.00,,,0.00,VWS V14.00,2013-03-11 17:10:00,
2013-03-11 12:15:00,26.8,12.0,28.67,WSW,249,0.0,0.0,53,0.00,,,0.00,VWS V14.00,2013-03-11 17:15:00,
2013-03-11 12:20:00,27.5,12.6,28.67,SW,220,0.0,0.0,53,0.00,,,0.00,VWS V14.00,2013-03-11 17:20:00,
2013-03-11 12:25:00,27.0,10.8,28.67,SW,217,0.0,0.0,50,0.00,,,0.00,VWS V14.00,2013-03-11 17:25:00,
2013-03-11 12:30:00,26.6,11.4,28.67,West,263,0.0,0.0,52,0.00,,,0.00,VWS V14.00,2013-03-11 17:30:00,
2013-03-11 12:35:00,27.7,12.4,28.67,WNW,289,0.0,0.0,52,0.00,,,0.00,VWS V14.00,2013-03-11 17:35:00,
2013-03-11 12:40:00,28.6,12.8,28.67,SW,234,0.0,0.0,51,0.00,,,0.00,VWS V14.00,2013-03-11 17:40:00,
2013-03-11 12:45:00,28.2,12.0,28.67,West,273,0.0,0.0,50,0.00,,,0.00,VWS V14.00,2013-03-11 17:45:00,
2013-03-11 12:50:00,27.1,10.5,28.67,SW,222,0.0,0.0,49,0.00,,,0.00,VWS V14.00,2013-03-11 17:50:00,
2013-03-11 12:55:00,27.7,11.9,28.67,SSW,203,0.0,0.0,51,0.00,,,0.00,VWS V14.00,2013-03-11 17:55:00,
2013-03-11 13:00:00,27.9,11.6,28.70,SSW,204,0.0,0.0,50,0.00,,,0.00,VWS V14.00,2013-03-11 18:00:00,
2013-03-11 13:05:00,27.7,11.5,28.70,SSW,195,0.0,0.0,50,0.00,,,0.00,VWS V14.00,2013-03-11 18:05:00,
2013-03-11 13:10:00,27.9,11.6,28.70,West,264,0.0,0.0,50,0.00,,,0.00,VWS V14.00,2013-03-11 18:10:00,
2013-03-11 13:15:00,27.9,11.2,28.70,South,178,0.0,0.0,49,0.00,,,0.00,VWS V14.00,2013-03-11 18:15:00,
2013-03-11 13:20:00,28.2,11.5,28.70,SW,229,0.0,0.0,49,0.00,,,0.00,VWS V14.00,2013-03-11 18:20:00,
2013-03-11 13:25:00,28.0,11.4,28.70,ESE,121,0.0,0.0,49,0.00,,,0.00,VWS V14.00,2013-03-11 18:25:00,
2013-03-11 13:30:00,27.7,11.9,28.70,SW,219,0.0,0.0,51,0.00,,,0.00,VWS V14.00,2013-03-11 18:30:00,
2013-03-11 13:35:00,27.3,10.2,28.70,SSW,202,0.0,0.0,48,0.00,,,0.00,VWS V14.00,2013-03-11 18:35:00,
2013-03-11 13:40:00,27.7,11.5,28.70,WSW,249,0.0,0.0,50,0.00,,,0.00,VWS V14.00,2013-03-11 18:40:00,
2013-03-11 13:45:00,27.0,10.4,28.70,SSW,203,0.0,0.0,49,0.00,,,0.00,VWS V14.00,2013-03-11 18:45:00,
2013-03-11 13:50:00,27.1,11.4,28.70,WSW,241,0.0,0.0,51,0.00,,,0.00,VWS V14.00,2013-03-11 18:50:00,
2013-03-11 13:55:00,26.4,11.2,28.70,SW,226,0.0,0.0,52,0.00,,,0.00,VWS V14.00,2013-03-11 18:55:00,
2013-03-11 14:00:00,26.6,10.9,28.70,South,170,0.0,0.0,51,0.00,,OVC013,0.00,VWS V14.00,2013-03-11 19:00:00,
2013-03-11 14:05:00,27.1,10.5,28.70,SSE,164,0.0,0.0,49,0.00,,OVC013,0.00,VWS V14.00,2013-03-11 19:05:00,
2013-03-11 14:10:00,27.1,10.1,28.70,WSW,240,0.0,0.0,48,0.00,,OVC013,0.00,VWS V14.00,2013-03-11 19:10:00,
2013-03-11 14:15:00,26.8,9.7,28.70,South,170,0.0,0.0,48,0.00,,OVC013,0.00,VWS V14.00,2013-03-11 19:15:00,
2013-03-11 14:20:00,27.0,9.9,28.70,SSW,192,0.0,0.0,48,0.00,,OVC013,0.00,VWS V14.00,2013-03-11 19:20:00,
2013-03-11 14:25:00,27.3,10.2,28.70,West,275,0.0,0.0,48,0.00,,OVC013,0.00,VWS V14.00,2013-03-11 19:25:00,
2013-03-11 14:30:00,27.1,9.6,28.70,SSW,206,0.0,0.0,47,0.00,,OVC013,0.00,VWS V14.00,2013-03-11 19:30:00,
2013-03-11 14:35:00,27.7,9.6,28.70,South,174,0.0,0.0,46,0.00,,OVC013,0.00,VWS V14.00,2013-03-11 19:35:00,
2013-03-11 14:40:00,28.2,9.1,28.70,SSW,195,0.0,0.0,44,0.00,,OVC013,0.00,VWS V14.00,2013-03-11 19:40:00,
2013-03-11 14:45:00,27.7,8.1,28.70,SSW,204,0.0,0.0,43,0.00,,OVC013,0.00,VWS V14.00,2013-03-11 19:45:00,
2013-03-11 14:50:00,27.9,9.3,28.70,SW,230,0.0,0.0,45,0.00,,OVC013,0.00,VWS V14.00,2013-03-11 19:50:00,
2013-03-11 14:55:00,27.1,8.1,28.70,SSW,212,0.0,0.0,44,0.00,,OVC013,0.00,VWS V14.00,2013-03-11 19:55:00,
2013-03-11 15:00:00,27.7,8.6,28.67,SSW,203,0.0,0.0,44,0.00,,OVC014,0.00,VWS V14.00,2013-03-11 20:00:00,
2013-03-11 15:05:00,27.1,8.1,28.67,SW,227,0.0,0.0,44,0.00,,OVC014,0.00,VWS V14.00,2013-03-11 20:05:00,
2013-03-11 15:10:00,28.2,9.6,28.67,SSW,196,0.0,0.0,45,0.00,,OVC014,0.00,VWS V14.00,2013-03-11 20:10:00,
2013-03-11 15:15:00,29.3,9.1,28.70,SSW,205,0.0,0.0,42,0.00,,OVC014,0.00,VWS V14.00,2013-03-11 20:15:00,
2013-03-11 15:20:00,27.9,7.8,28.70,SSW,205,0.0,0.0,42,0.00,,OVC014,0.00,VWS V14.00,2013-03-11 20:20:00,
2013-03-11 15:25:00,28.6,8.4,28.70,South,187,0.0,0.0,42,0.00,,OVC015,0.00,VWS V14.00,2013-03-11 20:25:00,
2013-03-11 15:30:00,27.9,7.8,28.70,South,185,0.0,0.0,42,0.00,,OVC015,0.00,VWS V14.00,2013-03-11 20:30:00,
2013-03-11 15:35:00,28.6,8.4,28.70,SW,218,0.0,0.0,42,0.00,,OVC015,0.00,VWS V14.00,2013-03-11 20:35:00,
2013-03-11 15:40:00,28.4,8.2,28.70,SW,218,0.0,0.0,42,0.00,,OVC015,0.00,VWS V14.00,2013-03-11 20:40:00,
2013-03-11 15:45:00,27.7,7.6,28.70,SSW,208,0.0,0.0,42,0.00,,OVC015,0.00,VWS V14.00,2013-03-11 20:45:00,
2013-03-11 15:50:00,28.8,8.6,28.70,SSW,201,0.0,0.0,42,0.00,,OVC015,0.00,VWS V14.00,2013-03-11 20:50:00,
2013-03-11 15:55:00,29.5,9.2,28.70,SW,227,0.0,0.0,42,0.00,,OVC015,0.00,VWS V14.00,2013-03-11 20:55:00,
2013-03-11 16:00:00,29.3,8.5,28.70,WSW,253,0.0,0.0,41,0.00,,OVC015,0.00,VWS V14.00,2013-03-11 21:00:00,
2013-03-11 16:05:00,29.1,8.9,28.70,SW,227,0.0,0.0,42,0.00,,OVC017,0.00,VWS V14.00,2013-03-11 21:05:00,
2013-03-11 16:10:00,28.2,8.1,28.70,SSW,199,0.0,0.0,42,0.00,,OVC017,0.00,VWS V14.00,2013-03-11 21:10:00,
2013-03-11 16:15:00,28.4,7.7,28.70,WSW,251,0.0,0.0,41,0.00,,OVC017,0.00,VWS V14.00,2013-03-11 21:15:00,
2013-03-11 16:20:00,29.3,8.5,28.70,SSW,208,0.0,0.0,41,0.00,,OVC017,0.00,VWS V14.00,2013-03-11 21:20:00,
2013-03-11 16:25:00,28.4,7.7,28.70,SSW,203,0.0,0.0,41,0.00,,OVC017,0.00,VWS V14.00,2013-03-11 21:25:00,
2013-03-11 16:30:00,27.9,7.2,28.70,SW,222,0.0,0.0,41,0.00,,OVC017,0.00,VWS V14.00,2013-03-11 21:30:00,
2013-03-11 16:35:00,27.3,7.8,28.70,SW,221,0.0,0.0,43,0.00,,OVC017,0.00,VWS V14.00,2013-03-11 21:35:00,
2013-03-11 16:40:00,27.3,7.8,28.70,SSE,165,0.0,0.0,43,0.00,,OVC017,0.00,VWS V14.00,2013-03-11 21:40:00,
2013-03-11 16:45:00,27.7,8.6,28.70,SSW,195,0.0,0.0,44,0.00,,OVC017,0.00,VWS V14.00,2013-03-11 21:45:00,
2013-03-11 16:50:00,27.5,7.9,28.70,SSE,167,0.0,0.0,43,0.00,,OVC017,0.00,VWS V14.00,2013-03-11 21:50:00,
2013-03-11 16:55:00,27.3,7.8,28.70,SW,224,0.0,0.0,43,0.00,,OVC017,0.00,VWS V14.00,2013-03-11 21:55:00,
2013-03-11 17:00:00,27.9,8.3,28.73,SSW,192,0.0,0.0,43,0.00,,OVC017,0.00,VWS V14.00,2013-03-11 22:00:00,
2013-03-11 17:05:00,27.1,7.6,28.73,WSW,239,0.0,0.0,43,0.00,,OVC028,0.00,VWS V14.00,2013-03-11 22:05:00,
2013-03-11 17:10:00,27.3,7.8,28.73,SSW,210,0.0,0.0,43,0.00,,OVC028,0.00,VWS V14.00,2013-03-11 22:10:00,
2013-03-11 17:15:00,27.0,6.9,28.73,SSW,210,0.0,0.0,42,0.00,,OVC028,0.00,VWS V14.00,2013-03-11 22:15:00,
2013-03-11 17:20:00,26.6,7.1,28.73,SSW,192,0.0,0.0,43,0.00,,OVC028,0.00,VWS V14.00,2013-03-11 22:20:00,
2013-03-11 17:25:00,26.6,7.6,28.73,SSE,153,0.0,0.0,44,0.00,,OVC028,0.00,VWS V14.00,2013-03-11 22:25:00,
2013-03-11 17:30:00,26.6,7.6,28.73,SW,222,0.0,0.0,44,0.00,,OVC028,0.00,VWS V14.00,2013-03-11 22:30:00,
2013-03-11 17:35:00,26.6,7.6,28.73,South,185,0.0,0.0,44,0.00,,OVC028,0.00,VWS V14.00,2013-03-11 22:35:00,
2013-03-11 17:40:00,26.4,7.5,28.73,SSW,206,0.0,0.0,44,0.00,,OVC028,0.00,VWS V14.00,2013-03-11 22:40:00,
2013-03-11 17:45:00,27.0,7.5,28.73,SSW,208,0.0,0.0,43,0.00,,OVC028,0.00,VWS V14.00,2013-03-11 22:45:00,
2013-03-11 17:50:00,27.0,7.5,28.73,SSE,147,0.0,0.0,43,0.00,,OVC028,0.00,VWS V14.00,2013-03-11 22:50:00,
2013-03-11 17:55:00,26.6,7.6,28.73,SSW,206,0.0,0.0,44,0.00,,OVC028,0.00,VWS V14.00,2013-03-11 22:55:00,
2013-03-11 18:00:00,26.8,7.8,28.73,WSW,246,0.0,0.0,44,0.00,,OVC028,0.00,VWS V14.00,2013-03-11 23:00:00,
2013-03-11 18:05:00,26.2,7.3,28.73,SSW,206,0.0,0.0,44,0.00,,OVC023,0.00,VWS V14.00,2013-03-11 23:05:00,
2013-03-11 18:10:00,26.1,7.2,28.73,SW,219,0.0,0.0,44,0.00,,OVC023,0.00,VWS V14.00,2013-03-11 23:10:00,
2013-03-11 18:15:00,25.7,7.3,28.73,WSW,248,0.0,0.0,45,0.00,,OVC023,0.00,VWS V14.00,2013-03-11 23:15:00,
2013-03-11 18:20:00,25.9,7.5,28.73,SW,217,0.0,0.0,45,0.00,,OVC023,0.00,VWS V14.00,2013-03-11 23:20:00,
2013-03-11 18:25:00,26.1,7.2,28.73,SW,229,0.0,0.0,44,0.00,,OVC023,0.00,VWS V14.00,2013-03-11 23:25:00,
2013-03-11 18:30:00,25.9,7.0,28.73,SW,229,0.0,0.0,44,0.00,,OVC023,0.00,VWS V14.00,2013-03-11 23:30:00,
2013-03-11 18:35:00,25.3,7.0,28.73,SSW,211,0.0,0.0,45,0.00,,OVC023,0.00,VWS V14.00,2013-03-11 23:35:00,
2013-03-11 18:40:00,25.2,6.8,28.73,SW,223,0.0,0.0,45,0.00,,OVC023,0.00,VWS V14.00,2013-03-11 23:40:00,
2013-03-11 18:45:00,25.0,7.1,28.73,SW,230,0.0,0.0,46,0.00,,OVC023,0.00,VWS V14.00,2013-03-11 23:45:00,
2013-03-11 18:50:00,24.1,6.3,28.73,SW,216,0.0,0.0,46,0.00,,OVC023,0.00,VWS V14.00,2013-03-11 23:50:00,
2013-03-11 18:55:00,24.3,6.5,28.73,SW,232,0.0,0.0,46,0.00,,OVC023,0.00,VWS V14.00,2013-03-11 23:55:00,
2013-03-11 19:00:00,24.3,6.9,28.73,SW,214,0.0,0.0,47,0.00,,SCT021,0.00,VWS V14.00,2013-03-12 00:00:00,
2013-03-11 19:05:00,23.9,6.1,28.73,SW,228,0.0,0.0,46,0.00,,SCT021,0.00,VWS V14.00,2013-03-12 00:05:00,
2013-03-11 19:10:00,23.7,6.9,28.73,SSW,202,0.0,0.0,48,0.00,,SCT021,0.00,VWS V14.00,2013-03-12 00:10:00,
2013-03-11 19:15:00,23.2,6.9,28.73,South,191,0.0,0.0,49,0.00,,SCT021,0.00,VWS V14.00,2013-03-12 00:15:00,
2013-03-11 19:20:00,23.2,7.3,28.73,SSW,205,0.0,0.0,50,0.00,,SCT021,0.00,VWS V14.00,2013-03-12 00:20:00,
2013-03-11 19:25:00,22.8,7.8,28.73,South,188,0.0,0.0,52,0.00,,SCT021,0.00,VWS V14.00,2013-03-12 00:25:00,
2013-03-11 19:30:00,22.5,7.9,28.76,SW,215,0.0,0.0,53,0.00,,SCT021,0.00,VWS V14.00,2013-03-12 00:30:00,
2013-03-11 19:35:00,22.1,8.0,28.76,SSW,209,0.0,0.0,54,0.00,,SCT021,0.00,VWS V14.00,2013-03-12 00:35:00,
2013-03-11 19:40:00,21.9,8.2,28.76,SSW,203,0.0,0.0,55,0.00,,SCT021,0.00,VWS V14.00,2013-03-12 00:40:00,
2013-03-11 19:45:00,22.1,8.8,28.76,SSW,192,0.0,0.0,56,0.00,,SCT021,0.00,VWS V14.00,2013-03-12 00:45:00,
2013-03-11 19:50:00,22.5,9.5,28.76,SSW,210,0.0,0.0,57,0.00,,SCT021,0.00,VWS V14.00,2013-03-12 00:50:00,
2013-03-11 19:55:00,22.6,9.3,28.76,South,184,0.0,0.0,56,0.00,,SCT021,0.00,VWS V14.00,2013-03-12 00:55:00,
2013-03-11 20:00:00,22.6,8.9,28.79,SSW,199,0.0,0.0,55,0.00,,SCT021,0.00,VWS V14.00,2013-03-12 01:00:00,
2013-03-11 20:05:00,23.0,9.7,28.79,SW,216,0.0,0.0,56,0.00,,BKN150,0.00,VWS V14.00,2013-03-12 01:05:00,
2013-03-11 20:10:00,23.2,9.0,28.79,South,181,0.0,0.0,54,0.00,,BKN150,0.00,VWS V14.00,2013-03-12 01:10:00,
2013-03-11 20:15:00,23.5,9.4,28.79,South,183,0.0,0.0,54,0.00,,BKN150,0.00,VWS V14.00,2013-03-12 01:15:00,
2013-03-11 20:20:00,23.5,8.9,28.79,SSW,202,0.0,0.0,53,0.00,,BKN150,0.00,VWS V14.00,2013-03-12 01:20:00,
2013-03-11 20:25:00,23.9,9.3,28.79,SSE,149,0.0,0.0,53,0.00,,BKN150,0.00,VWS V14.00,2013-03-12 01:25:00,
2013-03-11 20:30:00,23.9,8.9,28.79,SW,219,0.0,0.0,52,0.00,,BKN150,0.00,VWS V14.00,2013-03-12 01:30:00,
2013-03-11 20:35:00,23.9,8.9,28.79,South,173,0.0,0.0,52,0.00,,BKN150,0.00,VWS V14.00,2013-03-12 01:35:00,
2013-03-11 20:40:00,23.9,8.4,28.79,South,177,0.0,0.0,51,0.00,,BKN150,0.00,VWS V14.00,2013-03-12 01:40:00,
2013-03-11 20:45:00,24.1,8.6,28.79,South,175,0.0,0.0,51,0.00,,BKN150,0.00,VWS V14.00,2013-03-12 01:45:00,
2013-03-11 20:50:00,24.3,8.3,28.79,SW,221,0.0,0.0,50,0.00,,BKN150,0.00,VWS V14.00,2013-03-12 01:50:00,
2013-03-11 20:55:00,24.3,8.3,28.79,South,191,0.0,0.0,50,0.00,,BKN150,0.00,VWS V14.00,2013-03-12 01:55:00,
2013-03-11 21:00:00,24.3,8.3,28.79,SSW,208,0.0,0.0,50,0.00,,OVC060,0.00,VWS V14.00,2013-03-12 02:00:00,
2013-03-11 21:05:00,24.3,8.3,28.79,SW,226,0.0,0.0,50,0.00,,OVC060,0.00,VWS V14.00,2013-03-12 02:05:00,
2013-03-11 21:10:00,24.3,8.3,28.79,SSW,212,0.0,0.0,50,0.00,,OVC060,0.00,VWS V14.00,2013-03-12 02:10:00,
2013-03-11 21:15:00,24.3,8.3,28.79,SSW,213,0.0,0.0,50,0.00,,OVC060,0.00,VWS V14.00,2013-03-12 02:15:00,
2013-03-11 21:20:00,24.3,8.3,28.79,SSE,165,0.0,0.0,50,0.00,,OVC060,0.00,VWS V14.00,2013-03-12 02:20:00,
2013-03-11 21:25:00,24.3,8.3,28.79,SW,236,0.0,0.0,50,0.00,,OVC060,0.00,VWS V14.00,2013-03-12 02:25:00,
2013-03-11 21:30:00,24.4,8.9,28.79,South,187,0.0,0.0,51,0.00,,OVC060,0.00,VWS V14.00,2013-03-12 02:30:00,
2013-03-11 21:35:00,24.4,8.5,28.79,South,171,0.0,0.0,50,0.00,,OVC060,0.00,VWS V14.00,2013-03-12 02:35:00,
2013-03-11 21:40:00,24.6,8.2,28.79,SSW,211,0.0,0.0,49,0.00,,OVC060,0.00,VWS V14.00,2013-03-12 02:40:00,
2013-03-11 21:45:00,24.6,7.7,28.79,South,179,0.0,0.0,48,0.00,,OVC060,0.00,VWS V14.00,2013-03-12 02:45:00,
2013-03-11 21:50:00,24.4,8.0,28.79,SW,219,0.0,0.0,49,0.00,,OVC060,0.00,VWS V14.00,2013-03-12 02:50:00,
2013-03-11 21:55:00,23.7,7.8,28.79,SW,214,0.0,0.0,50,0.00,,OVC060,0.00,VWS V14.00,2013-03-12 02:55:00,
2013-03-11 22:00:00,23.7,8.7,28.79,SW,218,0.0,0.0,52,0.00,,OVC060,0.00,VWS V14.00,2013-03-12 03:00:00,
2013-03-11 22:05:00,23.4,8.4,28.79,SW,218,0.0,0.0,52,0.00,,BKN075,0.00,VWS V14.00,2013-03-12 03:05:00,
2013-03-11 22:10:00,23.5,8.9,28.79,South,170,0.0,0.0,53,0.00,,BKN075,0.00,VWS V14.00,2013-03-12 03:10:00,
2013-03-11 22:15:00,23.5,8.9,28.79,SSW,196,0.0,0.0,53,0.00,,BKN075,0.00,VWS V14.00,2013-03-12 03:15:00,
2013-03-11 22:20:00,23.5,8.5,28.79,SSW,206,0.0,0.0,52,0.00,,BKN075,0.00,VWS V14.00,2013-03-12 03:20:00,
2013-03-11 22:25:00,23.5,8.5,28.79,SSW,210,0.0,0.0,52,0.00,,BKN075,0.00,VWS V14.00,2013-03-12 03:25:00,
2013-03-11 22:30:00,23.4,8.8,28.79,SW,219,0.0,0.0,53,0.00,,BKN075,0.00,VWS V14.00,2013-03-12 03:30:00,
2013-03-11 22:35:00,23.2,8.6,28.79,SSW,196,0.0,0.0,53,0.00,,BKN075,0.00,VWS V14.00,2013-03-12 03:35:00,
2013-03-11 22:40:00,22.8,8.3,28.79,SW,218,0.0,0.0,53,0.00,,BKN075,0.00,VWS V14.00,2013-03-12 03:40:00,
2013-03-11 22:45:00,23.0,9.2,28.79,SW,228,0.0,0.0,55,0.00,,BKN075,0.00,VWS V14.00,2013-03-12 03:45:00,
2013-03-11 22:50:00,22.6,8.9,28.79,SSW,201,0.0,0.0,55,0.00,,BKN075,0.00,VWS V14.00,2013-03-12 03:50:00,
2013-03-11 22:55:00,22.6,9.3,28.79,SSW,198,0.0,0.0,56,0.00,,BKN075,0.00,VWS V14.00,2013-03-12 03:55:00,
2013-03-11 23:00:00,22.6,9.3,28.82,SW,215,0.0,0.0,56,0.00,,FEW060,0.00,VWS V14.00,2013-03-12 04:00:00,
2013-03-11 23:05:00,22.3,9.0,28.82,SW,215,0.0,0.0,56,0.00,,FEW060,0.00,VWS V14.00,2013-03-12 04:05:00,
2013-03-11 23:10:00,22.6,10.1,28.82,SSW,211,0.0,0.0,58,0.00,,FEW060,0.00,VWS V14.00,2013-03-12 04:10:00,
2013-03-11 23:15:00,22.8,9.9,28.79,SW,218,0.0,0.0,57,0.00,,FEW060,0.00,VWS V14.00,2013-03-12 04:15:00,
2013-03-11 23:20:00,22.8,9.5,28.79,SSW,202,0.0,0.0,56,0.00,,FEW060,0.00,VWS V14.00,2013-03-12 04:20:00,
2013-03-11 23:25:00,22.5,9.1,28.79,SSW,211,0.0,0.0,56,0.00,,FEW060,0.00,VWS V14.00,2013-03-12 04:25:00,
2013-03-11 23:30:00,22.1,9.2,28.79,SSW,211,0.0,0.0,57,0.00,,FEW060,0.00,VWS V14.00,2013-03-12 04:30:00,
2013-03-11 23:35:00,21.9,9.0,28.79,SW,224,0.0,0.0,57,0.00,,FEW060,0.00,VWS V14.00,2013-03-12 04:35:00,
2013-03-11 23:40:00,21.7,9.6,28.79,SW,218,0.0,0.0,59,0.00,,FEW060,0.00,VWS V14.00,2013-03-12 04:40:00,
2013-03-11 23:45:00,21.6,9.5,28.79,SW,218,0.0,0.0,59,0.00,,FEW060,0.00,VWS V14.00,2013-03-12 04:45:00,
2013-03-11 23:50:00,21.4,9.7,28.79,SW,218,0.0,0.0,60,0.00,,FEW060,0.00,VWS V14.00,2013-03-12 04:50:00,
2013-03-11 23:55:00,21.2,9.9,28.79,SW,218,0.0,0.0,61,0.00,,FEW060,0.00,VWS V14.00,2013-03-12 04:55:00,